Miscellaneous Local Product
Issued by NWS North Platte, NE

Home | Current Version | Previous Version | Text Only | Print | Product List | Glossary On
Versions: 1 2 3 4 5 6 7 8 9 10 11 12 13 14 15 16 17 18 19 20 21 22 23 24 25 26 27 28 29 30 31 32 33 34 35 36 37 38 39 40 41 42 43 44 45 46 47 48 49 50
000
AXUS43 KLBF 271610
MISLBF


WESTERN AND NORTH CENTRAL NEBRASKA HOURLY WEATHER ROUNDUP
NATIONAL WEATHER SERVICE NORTH PLATTE NE
1100 AM CDT FRI MAR 27 2015

***STATIONS NOT REPORTING VARIABLES SUCH AS SKY/WEATHER OR
PRESSURE ARE PROVIDED BY THE NEBRASKA DEPARTMENT OF
ROADS...RAWS...AND APRS NETWORKS...AND ARE NOT UNDER
NATIONAL WEATHER SERVICE QUALITY CONTROL***

...OBSERVATIONS IN AND NEAR THE EASTERN PANHANDLE OF NEBRASKA...

CITY           SKY/WX    TMP DP  RH WIND       PRES   REMARKS
PINE RIDGE     PTSUNNY   49  39  68 W9        30.05S
CHADRON        CLOUDY    50  40  68 NW12      30.07S
ALLIANCE       CLOUDY    51  39  63 W22       30.08F
SIDNEY         PTSUNNY   46  35  65 SW15      30.13F
WHITECLAY        N/A     46  37  71 W16         N/A
CRESCENT LAKE    N/A     45  40  83 SW10        N/A
BIG SPRINGS      N/A     39  36  89 SW12        N/A  WCI  32
$$

...OBSERVATIONS IN NORTH CENTRAL NEBRASKA...

CITY           SKY/WX    TMP DP  RH WIND       PRES   REMARKS
VALENTINE      CLOUDY    37  29  72 S15       30.08F WCI  28
THEDFORD       CLOUDY    37  31  78 S15       30.13F WCI  28
AINSWORTH      CLOUDY    36  28  74 S15       30.12F WCI  26
O`NEILL        CLOUDY    31  24  76 SE9       30.19F WCI  23
ORD            CLOUDY    33  23  66 S8        30.21F WCI  26
BROKEN BOW     CLOUDY    35  24  64 S13       30.19F WCI  26
BROWNLEE         N/A     38  31  75 S16         N/A  WCI  29
SPRINGVIEW       N/A     35  28  76 SE8G15      N/A  WCI  28
BREWSTER         N/A     36  27  67 S12         N/A  WCI  28
ROSE             N/A     35  30  80 SE10        N/A  WCI  27
NEWPORT          N/A     36  27  68 S13         N/A  WCI  27
SARGENT          N/A     33  27  79 CALM        N/A
COMSTOCK         N/A     36  28  73 S9          N/A  WCI  29
EWING            N/A     29  24  80 S5          N/A  WCI  24
$$

...OBSERVATIONS IN SOUTHWEST NEBRASKA AND FAR NORTHEAST COLORADO...

CITY           SKY/WX    TMP DP  RH WIND       PRES   REMARKS
WRAY           FAIR      46  32  59 SW7       30.16F
HOLYOKE        FAIR      45  36  70 SW15      30.15F
IMPERIAL         N/A     41  35  79 SW13      30.17F
OGALLALA       PTSUNNY   41  37  87 SW10G16   30.14F
NORTH PLATTE   CLOUDY    35  31  85 S10       30.18F WCI  27
MCCOOK         CLOUDY    36  30  79 S9        30.22F WCI  29
LEXINGTON      CLOUDY    37  26  65 SW9       30.22S WCI  30
PAXTON           N/A     36  34  92 S9          N/A  WCI  29
SUTHERLAND       N/A     32  30  93 SW12        N/A  WCI  23
BRADY            N/A     35  29  80 CALM        N/A
GOTHENBURG       N/A     34  27  74 S6          N/A  WCI  29
CALLAWAY         N/A     33  28  83 S13         N/A  WCI  24
$$

...NORTH PLATTE AREA...

CITY           SKY/WX    TMP DP  RH WIND       PRES   REMARKS
AIRPORT        CLOUDY    35  31  85 S10       30.18F WCI  27
DOWNTOWN         N/A     34  32  92 SW6         N/A  WCI  29
$$

...SOME WEATHER OBSERVATIONS FROM AROUND THE REGION...

CITY           SKY/WX    TMP DP  RH WIND       PRES   REMARKS
DENVER         PTSUNNY   60  31  33 NW6       30.19R
LARAMIE        SUNNY     48  28  46 W13       30.23F
CHEYENNE       MOSUNNY   53  28  38 NW18G25   30.19S
SCOTTSBLUFF    CLOUDY    45  38  76 W10       30.12F
RAPID CITY     SUNNY     45  35  68 VRB3      29.99F
PIERRE         LGT SNOW  30  26  85 SE13      30.10S FOG     WCI  20
WINNER         CLOUDY    35  27  72 S16       30.11F WCI  25
SIOUX FALLS    CLOUDY    28   9  44 S7        30.24F WCI  21
OMAHA          PTSUNNY   33  19  56 CALM      30.30S
GRAND ISLAND   CLOUDY    34  20  56 VRB5      30.26F WCI  30
KANSAS CITY    PTSUNNY   37  24  59 N12       30.27S WCI  29
WICHITA        PTSUNNY   41  29  62 NE13      30.28R
HAYS           PTSUNNY   37  21  52 E9        30.27F WCI  31
LIBERAL        MOSUNNY   41  30  65 E9        30.28S
GOODLAND       PTSUNNY   42  32  67 S12       30.20S
$$



USA.gov is the U.S. government's official web portal to all federal, state and local government web resources and services.